Regional Weather Roundup
Issued by NWS Upton, NY

Current Version | Previous Version | Text Only | Print | Product List | Glossary On
Versions: 1 2 3 4 5 6 7 8 9 10 11 12 13 14 15 16 17 18 19 20 21 22 23 24 25 26 27 28 29 30 31 32 33 34 35 36 37 38 39 40 41 42 43 44 45 46 47 48 49 50
000
ASUS41 KOKX 152305
RWROKX

REGIONAL WEATHER ROUNDUP
NATIONAL WEATHER SERVICE NEW YORK NY
700 PM EDT MON SEP 15 2014

NOTE: "FAIR" INDICATES FEW OR NO CLOUDS BELOW 12,000 FEET WITH NO
SIGNIFICANT WEATHER AND/OR OBSTRUCTIONS TO VISIBILITY.

NYZ071-072-176-178-NJZ106-104-160000-
NEW YORK CITY METRO AREA


CITY           SKY/WX    TMP DP  RH WIND       PRES   REMARKS
CENTRAL PARK   PTCLDY    67  43  41 W3        30.13F
LAGUARDIA APRT MOCLDY    69  44  40 S10       30.10S
KENNEDY INTL   MOCLDY    66  45  46 S9        30.12F
NEWARK/LIBERTY MOCLDY    67  49  52 S8        30.11S
BRNX BOT. GARD   N/A     66  45  45 S2        30.11R
TETERBORO      PTCLDY    68  44  42 S7        30.09F
$$

NYZ177-179-078>081-160000-
LONG ISLAND NEW YORK

CITY           SKY/WX    TMP DP  RH WIND       PRES   REMARKS
FARMINGDALE    CLEAR     64  48  56 S7        30.12S
ISLIP          MOCLDY    64  47  53 SW6       30.11S
SHIRLEY        CLEAR     63  48  58 SW3       30.13S
WESTHAMPTON    CLEAR     60  47  61 CALM      30.14S
MONTAUK POINT    N/A     62  49  62 VRB5      30.14F
$$

NYZ052-065-067-160000-
HUDSON VALLEY

CITY           SKY/WX    TMP DP  RH WIND       PRES   REMARKS
WHITE PLAINS   PTCLDY    62  47  57 CALM      30.10F
NEWBURGH       PTCLDY    66  46  48 VRB6      30.11F
MONTGOMERY     PTCLDY    62  48  60 SW5       30.11R
POUGHKEEPSIE   PTCLDY    64  49  57 CALM      30.09F
ALBANY         MOCLDY    61  42  49 SE3       30.12S
$$

NJZ001-105-106-008-010-013-015-019>022-104-160000-
NEW JERSEY

CITY           SKY/WX    TMP DP  RH WIND       PRES   REMARKS
NEWARK/LIBERTY MOCLDY    67  49  52 S8        30.11S
TETERBORO      PTCLDY    68  44  42 S7        30.09F
CALDWELL       PTCLDY    67  45  45 CALM      30.11S
MORRISTOWN     MOCLDY    64  48  55 NW5       30.12R
SOMERVILLE     PTCLDY    62  50  64 CALM      30.09F
LINDEN         FAIR      71  52  50 S8        30.13S
SUSSEX         PTCLDY    65  49  56 W3        30.11S
ANDOVER          N/A     60  51  72 CALM      30.12S
TRENTON        CLEAR     67  46  47 SW5       30.11S
MILLVILLE      PTCLDY    62  53  72 CALM      30.13S
ATLANTIC CITY  PTCLDY    62  55  77 SE6       30.13F
WRIGHTSTOWN    CLEAR     64  53  67 S3        30.10F
TOMS RIVER     PTCLDY    63  54  72 CALM      30.13F
BELMAR         PTCLDY    63  48  59 S5        30.13S
$$

PAZ047>061-062-071-160000-
EASTERN PENNSYLVANIA

CITY           SKY/WX    TMP DP  RH WIND       PRES   REMARKS
PHILADELPHIA   PTCLDY    69  49  48 S8        30.12F
ALLENTOWN      PTCLDY    65  47  52 CALM      30.11F
SCRANTON       CLEAR     61  43  51 W7        30.11R
$$

CTZ002-004>006-009-010-012-RIZ004-006-007-MAZ004-011-015-160000-
SOUTHERN NEW ENGLAND
 IN CT

CITY           SKY/WX    TMP DP  RH WIND       PRES   REMARKS
BRADLEY INTL   PTCLDY    62  44  51 W3        30.11S
HARTFORD       CLEAR     65  39  38 SW9       30.11S
DANBURY        CLEAR     59  49  69 CALM      30.12S
WTRBRY/OXFORD  MOCLDY    59  43  55 CALM      30.13F
BRIDGEPORT     CLEAR     66  47  50 CALM      30.11S
MERIDEN        CLEAR     59  46  62 CALM      30.12S
NEW HAVEN      PTCLDY    66  46  48 SW3       30.12S
CHESTER        FAIR      61  48  63 W3        30.13R
GROTON         CLEAR     61  47  59 W5        30.11F
WILLIMANTIC    CLEAR     60  47  61 N5        30.13R

 IN RI

CITY           SKY/WX    TMP DP  RH WIND       PRES   REMARKS
PROVIDENCE     PTCLDY    62  48  60 S8        30.12F
BLOCK ISLAND   CLEAR     63  46  55 SW7       30.13F
WESTERLY       CLEAR     63  46  54 SW3       30.12F

 IN MA

CITY           SKY/WX    TMP DP  RH WIND       PRES   REMARKS
BOSTON         PTCLDY    59  47  64 E9        30.12F
WORCESTER      CLEAR     56  42  59 W3        30.13S
WESTFIELD      CLEAR     58  48  69 CALM      30.11S
PROVINCETOWN   PTCLDY    55  46  71 E3        30.14F
NANTUCKET      PTCLDY    60  49  66 CALM      30.14R
$$

ANZ330-335-338-340-345-350-353-355-160000-
COASTAL MARINE OBSERVATIONS


STATION/POSITION TIME  SKY/WX   TEMP    WIND        PRES    VSBY  WAVE
                                AIR SEA DIR/SP/G                  HT/PER
                 (UTC)          (F)     (DEG/KT/KT) (MB)    (MI)  (FT/S)
NY HARB ENTRANCE NOT AVBL
4S FIRE IS       NOT AVBL
23SW MTP         2300                                 N/A           1/ 7
HUDSON CANYON    2300            65 74   10/  8/ 12 1020.2          2/ 7
EXECUTION ROCKS  2300            68 72  160/  8/ 12   N/A
WESTERN LI SOUND 2300            68     170/  8/ 10   N/A           0
CENTRAL LI SOUND 2300            66 71  240/  6/ 10   N/A           1
EASTERN LI SOUND 2200            65 68  240/  8/ 10   N/A
ROBBINS REEF     2300            66     170/ 14/ 15 1018.3
$$


>>>>>>>>>>>>>>>>>>>>>>>>>>>> KEY <<<<<<<<<<<<<<<<<<<<<<<<<<<
>                                                          <
>     SKY/WX - SKY CONDITION/PRESENT WEATHER               <
>     TMP    - TEMPERATURE IN FAHRENHEIT                   <
>     DP     - DEWPOINT IN FAHRENHEIT                      <
>     RH     - RELATIVE HUMIDITY IN PERCENT                <
>     WIND   - DIRECTION AND SPEED IN MPH                  <
>     PRES   - MEAN SEA LEVEL PRESSURE IN INCHES OF HG     <
>     WCI    - WIND CHILL INDEX                            <
>     VSB    - VISIBILITY IN MILES                         <
>     HX     - HEAT INDEX                                  <
>     TC     - TEMPERATURE IN CELSIUS                      <
>     VRB    - VARIABLE WIND DIRECTION                     <
>                                                          <
>>>>>>>>>>>>>>>>>>>>>>>>>>>> KEY <<<<<<<<<<<<<<<<<<<<<<<<<<<





USA.gov is the U.S. government's official web portal to all federal, state and local government web resources and services.